Location: St. Louis
(38.6270°N, 90.1994°W)
Time: 02:06:34
(UTC-06:00)

Vanguard 2 - Pass Details

Date: 08 December 2021
Orbit: 553 x 2936 km, 32.9° (Epoch: 16 January)

Event Time Altitude Azimuth Distance (km) Brightness Sun altitude
Rises 10:59:34 0° 224° (SW) 2,803 10.8 27.3°
Reaches altitude 10° 11:02:20 10° 206° (SSW) 1,826 10.4 27.5°
Maximum altitude 11:05:14 19° 158° (SSE) 1,335 11.0 27.6°
Drops below altitude 10° 11:08:15 10° 111° (ESE) 1,921 10.1 27.7°
Sets 11:11:16 0° 94° (E) 3,007 10.8 27.8°
